Location: Niedergestelen
(46.3129°N, 7.7822°E)
Time: 14:43:12
(UTC+00:00)

Cosmos 1943 Rocket - Pass Details

Date: 01 December 2020
Orbit: 811 x 845 km, 71.0° (Epoch: 27 January)

Event Time Altitude Azimuth Distance (km) Brightness Sun altitude
Rises 16:08:53 0° 337° (NNW) 3,357 5.3 -4.6°
Reaches altitude 10° 16:11:26 10° 344° (NNW) 2,425 4.5 -5.0°
Maximum altitude 16:16:44 44° 56° (NE) 1,138 2.5 -5.8°
Drops below altitude 10° 16:22:02 10° 128° (SE) 2,433 4.3 -6.6°
Sets 16:24:35 0° 135° (SE) 3,369 5.1 -7.0°
